User: anonymous   Login
Location: Unspecified
(0.0000°N, 0.0000°E)
Time: 06:08:58
(UTC+00:00)
Language:

CP3 - Orbit

View from above orbital plane
View from above orbital plane
View from above satellite
View from above satellite

Ground track
Ground track

The orbit data is extracted from the following two-line orbital elements,

1 31129U 07012N   17296.80201537  .00000246  00000-0  62014-4 0  9996
2 31129  98.0930 242.7534 0095895 156.3115 204.2543 14.56573398558236
Epoch (UTC): 23 October 2017 19:14:54
Eccentricity: 0.0095895
inclination: 98.0930°
perigee height: 636 km
apogee height: 772 km
right ascension of ascending node: 242.7534°
argument of perigee: 156.3115°
revolutions per day: 14.56573398
mean anomaly at epoch: 204.2543°
orbit number at epoch: 55823

The dashed part of the orbit path shows where the satellite is in the earth's shadow,  

DLR